Theta_e
302 302 303 304 304 306 306 307 308 306 302 303 303 301 302 300 298 297 296 294 294 293 291 292 292 293 294 294 295 294 294 294 293 293 292 291 291 290 289 289 289 289 289 289
303 303 303 305 305 306 305 307 306 304 302 303 302 302 301 300 298 297 296 295 295 294 292 291 292 293 293 293 294 294 294 293 292 292 291 290 290 289 289 288 288 288 288 288
306 306 304 306 305 306 305 306 305 307 303 301 301 302 301 299 297 295 295 294 294 293 293 292 292 291 292 292 292 293 292 292 291 290 290 289 288 288 288 287 287 287 287 287
306 305 305 306 306 306 309 303 304 304 304 306 300 302 302 300 298 297 296 294 293 293 292 291 292 291 291 292 291 291 291 290 289 289 289 288 287 286 287 287 286 286 286 286
308 304 305 306 305 306 308 302 303 302 303 298 303 299 302 298 299 297 295 293 293 293 291 290 289 291 291 291 291 290 289 289 288 288 287 287 286 286 286 285 285 285 285 285
304 301 303 304 302 304 301 303 303 301 302 301 301 303 303 299 297 297 295 293 293 292 291 290 290 290 290 290 290 289 289 289 288 287 286 286 285 285 285 285 284 284 284 285
306 305 302 301 304 302 304 307 309 309 305 306 298 301 303 298 295 294 293 292 292 290 290 289 289 289 289 289 289 289 288 288 287 286 286 285 285 284 284 284 284 284 284 284
309 307 304 302 305 305 305 308 311 312 302 301 299 301 304 293 286 281 284 282 289 291 288 287 286 287 288 288 288 288 288 287 286 286 285 285 284 284 283 283 283 283 283 283
309 311 302 302 302 304 305 308 302 299 292 295 296 297 297 294 291 287 286 292 292 290 287 286 285 286 287 287 287 287 286 286 285 285 284 284 283 283 282 282 282 282 282 282
306 305 304 301 301 301 304 301 307 301 302 300 295 294 300 295 292 290 287 292 291 290 288 285 284 284 285 286 286 286 285 285 285 284 283 283 282 281 281 281 281 281 281 281
302 304 303 302 302 303 302 303 301 302 296 296 295 298 288 290 291 290 289 290 285 284 283 282 282 284 284 285 285 285 284 284 284 283 282 281 281 281 281 281 281 281 281 281
303 303 301 298 293 296 297 298 299 302 297 289 291 297 281 280 284 287 289 291 284 284 281 279 280 281 284 285 285 285 285 284 284 282 281 281 281 281 281 280 281 280 280 281
303 303 302 301 301 299 301 298 295 294 295 292 297 298 283 282 282 284 284 284 285 285 281 276 276 278 281 284 284 284 284 284 283 282 281 282 282 281 281 281 280 280 280 281
303 302 295 301 300 297 299 299 298 300 294 292 295 293 292 289 287 285 284 284 279 280 276 272 273 276 281 282 283 284 283 283 283 282 282 281 282 282 281 281 281 281 281 281
303 303 298 294 292 294 291 299 300 301 294 303 293 296 295 293 290 288 282 276 278 277 275 274 272 272 280 281 282 282 282 282 282 282 282 283 282 280 281 282 282 281 281 281
298 299 299 296 292 289 295 294 294 298 291 291 285 291 289 276 270 277 280 274 276 274 273 273 270 274 278 279 280 280 281 281 282 282 282 282 282 282 282 282 283 283 282 281
299 295 300 301 291 294 297 290 294 294 293 300 297 298 286 283 277 278 276 284 281 278 279 273 272 275 279 279 278 279 279 280 281 281 281 281 281 282 282 282 282 283 283 283
293 292 294 292 289 298 290 274 284 295 292 292 285 282 282 281 275 278 281 279 275 274 272 271 275 279 278 278 278 278 279 279 280 280 280 280 280 280 281 281 282 283 283 282
291 294 290 293 286 291 291 282 287 292 292 290 294 279 274 272 284 284 281 279 274 271 273 278 278 278 277 277 277 278 278 278 278 277 278 278 278 278 279 280 281 281 281 282
295 292 292 280 289 291 286 284 281 284 294 279 277 281 279 283 288 285 281 282 272 276 278 279 278 277 277 276 276 276 276 276 275 275 275 276 276 276 277 277 278 279 279 280
296 296 292 283 283 287 283 286 286 297 292 276 272 276 284 286 282 274 271 272 275 278 278 278 277 276 276 275 275 275 275 274 273 273 274 274 275 275 276 276 276 277 278 278
294 293 290 285 287 292 285 288 293 289 279 281 277 273 278 272 271 272 272 273 274 276 277 276 276 275 275 274 274 274 273 272 272 272 273 274 274 274 275 275 276 276 277 277
292 292 292 292 293 287 284 288 280 278 284 280 280 276 279 278 277 277 278 278 278 277 276 275 274 274 274 273 273 272 272 271 272 272 273 273 274 274 274 274 275 275 276 276
289 288 291 293 290 288 285 281 279 278 284 283 283 281 281 281 279 279 278 277 276 276 275 274 273 273 272 272 271 271 270 271 271 271 272 273 273 273 274 274 274 274 275 276
291 290 291 292 292 288 288 286 286 282 280 282 280 280 281 280 278 277 278 277 276 275 274 273 272 271 271 271 271 270 270 270 270 271 271 271 272 272 272 273 273 274 275 277
290 291 292 293 292 292 293 290 286 284 283 281 281 280 279 279 278 277 276 275 274 274 273 272 271 271 271 271 271 270 270 270 269 269 270 270 270 271 271 271 272 273 274 275
Wind_Speed
4 4 11 16 13 3 4 4 5 3 1 2 6 6 13 6 1 3 3 3 3 3 3 9 13 11 11 11 17 17 15 12 9 6 6 7 7 7 7 7 7 6 5 6
3 15 10 6 7 5 4 4 5 3 1 1 5 12 12 6 3 4 2 0 2 1 2 5 9 11 12 15 14 12 10 9 7 5 5 6 6 7 8 7 6 6 6 7
10 4 12 13 6 8 5 8 5 4 0 2 5 8 5 2 2 3 3 1 1 1 1 1 3 4 6 8 8 8 7 7 6 6 6 6 8 8 9 9 9 9 8 8
8 3 5 8 9 8 7 8 5 4 3 4 2 5 5 4 5 5 5 4 4 2 1 1 0 2 4 5 6 7 7 7 6 7 8 9 9 9 9 9 10 10 9 8
9 5 8 5 5 10 2 5 6 3 3 4 1 2 5 1 6 7 7 6 5 1 3 5 5 6 5 6 6 7 7 8 8 9 9 10 11 11 11 12 12 10 9 8
2 4 2 4 4 5 11 7 6 4 2 2 5 5 5 5 6 4 4 6 5 2 4 4 5 4 5 6 8 9 10 10 10 11 10 10 11 11 12 12 12 10 9 8
4 3 4 3 9 3 3 8 2 1 2 6 1 1 8 4 5 4 8 7 2 2 3 4 5 6 7 8 10 10 11 12 11 11 11 11 11 11 12 12 12 10 10 9
9 5 10 6 5 8 6 5 5 7 4 3 2 7 6 4 1 1 1 2 3 1 3 5 5 7 7 7 7 10 11 12 12 12 12 12 12 12 13 12 12 12 11 10
7 6 3 2 3 5 6 6 4 6 2 3 3 6 7 4 1 1 2 5 5 1 3 5 7 6 6 8 8 9 9 11 12 13 13 14 13 14 15 13 12 12 12 11
6 3 3 3 4 1 4 5 4 0 3 4 4 5 6 5 7 4 3 6 4 1 3 4 6 7 6 7 8 8 9 12 12 13 14 15 14 13 12 12 13 12 11 12
5 3 4 6 6 8 4 3 1 4 2 5 1 6 6 7 9 10 8 6 5 3 3 4 6 7 7 6 8 10 11 13 14 15 15 15 13 12 12 13 12 11 11 12
4 4 4 3 3 1 2 6 4 4 5 1 3 6 1 5 6 7 7 4 2 3 3 4 6 8 8 9 9 9 10 15 14 13 14 13 12 12 13 12 12 11 12 11
7 4 5 2 1 3 5 4 3 4 3 6 6 5 2 1 1 4 4 4 3 3 1 4 6 8 9 9 9 11 9 10 10 12 13 13 13 13 13 11 12 11 10 10
12 2 4 6 3 4 5 7 8 4 3 5 7 3 3 6 6 5 5 4 4 4 3 3 4 7 10 9 9 11 12 10 8 11 13 14 13 12 12 11 11 10 10 11
4 4 3 3 4 3 4 7 13 13 5 8 3 9 5 11 11 8 5 1 2 4 3 3 4 4 9 12 12 10 12 13 10 9 12 13 12 12 12 13 12 11 13 11
3 3 2 2 2 3 1 4 4 7 2 6 2 8 7 0 1 2 6 4 3 4 5 4 4 7 9 13 14 16 13 14 13 10 12 11 12 12 13 13 12 13 14 16
3 5 2 2 2 1 6 10 11 6 5 12 11 10 7 3 4 5 5 6 6 4 1 3 5 8 11 11 13 16 16 11 10 11 9 10 11 13 13 14 15 16 16 16
5 4 2 2 3 1 5 1 1 10 4 10 2 4 5 4 3 3 4 6 5 3 3 4 4 7 9 11 12 14 12 11 8 8 10 10 10 12 14 15 17 18 19 20
1 4 3 4 3 5 2 3 5 6 7 11 16 4 2 1 3 2 5 3 5 4 4 3 3 6 7 9 12 12 10 10 11 12 13 14 15 16 16 17 18 18 20 21
3 5 3 3 4 7 6 2 4 3 4 2 3 7 7 6 2 4 4 4 2 3 2 1 5 5 6 9 12 10 11 11 14 15 16 16 16 16 18 18 19 20 20 22
2 2 4 2 2 7 5 3 5 4 5 1 3 5 6 5 3 3 2 2 3 3 1 2 4 5 7 10 11 10 11 11 15 17 17 16 15 16 16 17 17 18 18 20
4 4 3 2 2 7 5 4 5 3 1 1 2 3 4 4 2 3 3 3 3 3 2 4 5 6 6 9 11 10 10 15 17 17 16 15 15 14 14 15 16 15 15 16
2 4 3 6 4 2 4 3 2 3 4 4 3 4 6 6 4 6 4 5 3 3 2 4 5 6 6 9 9 11 14 16 17 17 16 15 15 15 14 15 16 15 13 13
3 2 1 2 2 4 4 2 2 5 3 4 4 5 6 6 7 5 5 3 2 1 2 4 6 7 8 10 10 10 12 15 15 15 15 16 17 17 16 15 14 13 14 16
2 4 2 4 5 3 5 6 6 5 2 5 5 5 6 7 5 5 4 3 2 1 1 4 6 7 9 10 11 11 13 14 15 15 15 16 16 17 17 16 14 14 13 14
5 5 4 5 3 2 2 1 7 9 8 8 7 5 4 5 6 4 4 4 3 2 3 5 6 8 10 10 11 11 12 13 14 14 15 15 16 16 16 17 20 13 10 10
Wind_Direction
200 171 201 200 202 118 143 177 209 216 167 233 235 261 270 298 285 332 9 11 20 40 358 46 59 74 108 134 158 164 169 175 189 209 241 262 267 268 275 288 288 286 292 296
129 233 212 184 180 192 169 185 224 271 159 264 324 276 258 246 217 192 220 284 36 82 46 42 61 82 108 129 145 158 173 187 209 233 254 264 270 277 282 281 274 279 287 293
194 195 196 184 164 187 213 210 183 218 24 38 331 283 260 227 168 187 189 178 196 224 303 40 67 90 124 141 157 174 191 209 228 247 257 269 278 279 277 265 265 274 283 289
244 207 144 189 201 158 214 185 148 140 111 243 359 280 290 218 228 213 203 193 187 151 52 356 269 211 208 202 201 211 216 221 232 248 262 271 272 274 272 269 271 275 277 274
211 194 168 182 186 167 196 113 110 95 93 32 211 43 261 84 245 223 214 205 204 204 317 292 282 263 246 227 227 224 224 234 246 256 260 264 269 271 272 271 273 274 271 261
323 305 179 168 68 123 142 91 64 60 80 297 204 175 252 194 213 171 168 184 192 309 315 303 308 274 247 232 231 229 234 243 251 255 258 260 266 270 269 270 270 271 264 253
135 192 307 152 89 109 122 144 141 193 180 230 238 129 259 240 217 200 169 176 163 298 318 316 315 304 279 253 247 245 247 247 247 249 256 261 264 264 265 266 267 266 263 259
177 216 168 186 166 176 183 171 166 193 203 221 104 229 249 220 184 312 337 198 230 282 332 317 308 296 286 267 263 257 244 248 244 250 259 262 262 264 266 266 266 266 264 272
175 217 101 120 117 146 169 203 120 101 46 49 206 280 288 144 9 30 212 167 171 194 339 334 324 313 312 294 283 265 251 250 251 256 258 260 263 265 267 266 261 263 269 277
173 120 170 121 116 44 206 158 134 132 172 232 274 276 242 212 216 210 225 198 192 159 353 337 333 332 316 309 291 272 260 260 261 260 260 263 266 265 261 257 258 264 267 267
131 119 128 144 205 163 153 189 150 123 129 169 193 256 213 209 192 185 199 198 212 243 277 303 308 335 354 345 303 277 268 267 267 267 265 262 262 262 262 259 255 263 263 259
181 121 153 175 237 184 96 185 169 149 217 150 142 271 267 250 193 162 184 192 217 207 250 285 316 327 357 13 353 317 290 272 268 264 259 258 259 262 262 258 252 250 256 258
177 153 118 79 354 176 204 183 141 118 96 198 146 256 359 23 308 223 196 231 233 211 274 325 348 337 339 357 356 344 335 298 276 259 259 260 260 259 263 260 253 250 254 259
155 121 171 178 172 134 179 186 185 154 140 166 220 269 288 244 227 227 233 249 240 233 238 298 320 321 334 347 359 351 346 342 297 262 256 258 258 261 264 262 262 258 257 256
120 148 121 71 72 50 162 186 188 206 186 192 248 208 224 208 210 212 191 239 290 286 288 281 291 305 331 341 345 352 346 349 333 299 267 266 270 267 263 267 271 270 270 258
91 116 149 98 42 60 236 203 192 230 234 278 159 265 225 251 41 198 207 175 226 236 245 272 288 306 328 333 333 333 341 340 336 328 303 287 276 274 275 274 275 273 271 265
114 140 140 141 341 309 295 198 189 194 213 217 226 242 156 221 225 207 211 201 214 223 242 269 271 292 320 330 332 330 334 342 341 336 331 317 306 293 287 285 281 275 271 270
121 107 71 138 21 297 249 214 164 233 244 230 302 223 186 182 195 165 181 174 203 226 257 267 271 316 330 331 333 335 339 341 353 355 347 340 329 314 303 293 283 279 277 274
48 115 90 145 193 302 327 246 158 164 278 215 226 176 201 174 122 257 178 149 175 193 223 243 324 329 332 340 340 340 345 349 348 351 343 335 330 321 310 300 296 291 287 280
53 73 104 99 154 209 241 253 184 188 295 273 188 162 161 168 133 249 183 133 193 228 238 359 353 352 344 353 346 343 346 348 351 343 336 333 329 322 315 311 304 297 290 285
104 82 145 162 219 285 238 189 179 108 241 234 188 177 154 175 189 158 104 122 185 167 87 30 2 1 353 350 347 345 346 350 341 337 336 337 334 327 322 316 311 305 297 290
159 146 180 96 79 280 167 112 172 211 63 162 184 196 127 131 110 116 145 169 163 143 95 13 3 356 360 354 353 347 347 340 341 343 342 345 343 342 337 327 321 319 312 301
256 186 186 192 216 262 223 193 217 162 150 197 180 182 148 137 172 164 170 170 155 100 50 12 0 352 3 359 359 346 341 341 342 345 349 354 352 350 349 341 335 328 329 314
246 178 193 45 278 238 228 232 217 189 188 156 159 151 164 154 158 162 163 146 98 47 12 355 354 357 351 352 355 347 342 344 344 348 353 358 355 352 355 351 346 336 329 324
186 135 190 274 269 336 251 221 193 184 180 129 115 153 160 139 156 161 142 140 168 242 318 342 345 340 336 338 346 347 346 348 348 351 355 358 357 354 351 350 341 330 328 318
178 186 174 227 217 144 279 274 161 156 174 167 144 134 132 152 152 142 155 168 183 233 292 323 329 324 327 330 336 341 345 348 349 349 352 355 355 353 354 352 347 2 340 337